User: anonymous   Login
Location: ActonStarParty
(42.4766°N, 71.4538°W)
Time: 18:18:25
(UTC-05:00)
Language:

Cosmos 1300 - Orbit

View from above orbital plane
View from above orbital plane
View from above satellite
View from above satellite

Ground track
Ground track

The orbit data is extracted from the following two-line orbital elements,

1 12785U 81082A   18047.96107394  .00000862  00000-0  42005-4 0  9992
2 12785  82.5046 191.2471 0002676 103.0898  36.5787 15.17044987988956
Epoch (UTC): 16 February 2018 23:03:56
Eccentricity: 0.0002676
inclination: 82.5046°
perigee height: 513 km
apogee height: 516 km
right ascension of ascending node: 191.2471°
argument of perigee: 103.0898°
revolutions per day: 15.17044987
mean anomaly at epoch: 36.5787°
orbit number at epoch: 98895

The dashed part of the orbit path shows where the satellite is in the earth's shadow,  

DLR